This demonstration page uses our WeatherBlox Daily Observations layout. Learn more.

Left ArrowRight Arrow

Hourly Observations for December 24, 2019

Temp ( °F °C ) Dew Point ( °F °C ) Humidity (%) Winds ( mph kmh ) Pressure ( in mb ) Visibility ( mi km ) Precip ( " mm )
12:56 am 00:56 Clear 30 -1.1 27 -2.8 88 88 S 5 7 29.86 1011 10 16 0.00 0.00
1:56 am 01:56 Clear 32 0 26 -3.3 79 79 WNW 3 6 29.83 1010 10 16 0.00 0.00
2:56 am 02:56 Clear 31 -0.6 26 -3.3 82 82 WNW 3 6 29.84 1011 10 16 0.00 0.00
3:56 am 03:56 Clear 31 -0.6 27 -2.8 85 85 S 5 7 29.84 1011 10 16 0.00 0.00
4:56 am 04:56 Clear 30 -1.1 27 -2.8 88 88 SSW 3 6 29.84 1011 10 16 0.00 0.00
5:56 am 05:56 Clear 29 -1.7 26 -3.3 89 89 SW 6 9 29.85 1011 10 16 0.00 0.00
6:56 am 06:56 Clear 29 -1.7 26 -3.3 89 89 W 6 9 29.84 1010 10 16 0.00 0.00
7:56 am 07:56 Clear 29 -1.7 26 -3.3 89 89 NW 7 11 29.84 1010 10 16 0.00 0.00
8:56 am 08:56 Sunny 30 -1.1 26 -3.3 85 85 NNE 3 6 29.82 1010 10 16 0.00 0.00
9:56 am 09:56 Sunny 34 1.1 29 -1.7 82 82 Calm 29.83 1010 10 16 0.00 0.00
10:56 am 10:56 Sunny 38 3.3 30 -1.1 73 73 NE 6 9 29.81 1009 10 16 0.00 0.00
11:56 am 11:56 Sunny 39 3.9 30 -1.1 70 70 E 6 9 29.78 1009 10 16 0.00 0.00
12:56 pm 12:56 Sunny 40 4.4 31 -0.6 70 70 Calm 29.77 1008 10 16 0.00 0.00
1:56 pm 13:56 Sunny 41 5 30 -1.1 65 65 E 6 9 29.73 1007 10 16 0.00 0.00
2:56 pm 14:56 Sunny 43 6.1 29 -1.7 58 58 SSE 5 7 29.73 1007 10 16 0.00 0.00
3:56 pm 15:56 Sunny 42 5.6 29 -1.7 60 60 SE 8 13 29.74 1007 10 16 0.00 0.00
4:56 pm 16:56 Sunny 38 3.3 28 -2.2 68 68 ENE 6 9 29.77 1008 10 16 0.00 0.00
5:56 pm 17:56 Clear 35 1.7 27 -2.8 72 72 NE 5 7 29.77 1008 10 16 0.00 0.00
6:56 pm 18:56 Clear 32 0 27 -2.8 82 82 NNE 8 13 29.77 1008 10 16 0.00 0.00
7:56 pm 19:56 Clear 32 0 29 -1.7 88 88 NE 7 11 29.75 1008 10 16 0.00 0.00
8:56 pm 20:56 Clear 33 0.6 29 -1.7 85 85 Calm 29.75 1007 10 16 0.00 0.00
9:56 pm 21:56 Clear 32 0 29 -1.7 88 88 NNW 5 7 29.74 1007 10 16 0.00 0.00
10:56 pm 22:56 Clear 31 -0.6 28 -2.2 89 89 NNW 8 13 29.72 1007 10 16 0.00 0.00
11:56 pm 23:56 Clear 28 -2.2 25 -3.9 88 88 NW 6 9 29.75 1008 8 13 0.00 0.00

Powered by AerisWeather